Hourly Weather Rudawka

Today, 16 April, Friday

Time Temperature Precipitation Wind Pressure Humidity
00:00 -2°C° 0.3 mm 4 mps 734 mmHg 98%
01:00 -1°C° 0 mm 4 mps 734 mmHg 97%
02:00 -2°C° 0.5 mm 4 mps 733 mmHg 97%
03:00 -2°C° 0.5 mm 5 mps 733 mmHg 97%
04:00 -2°C° 0.5 mm 5 mps 733 mmHg 97%
05:00 -2°C° 0.9 mm 5 mps 733 mmHg 97%
06:00 -2°C° 0.9 mm 5 mps 733 mmHg 97%
07:00 -2°C° 0.9 mm 6 mps 733 mmHg 97%
08:00 -2°C° 1.1 mm 6 mps 733 mmHg 97%
09:00 -2°C° 1.1 mm 6 mps 733 mmHg 98%
10:00 -2°C° 1.1 mm 6 mps 733 mmHg 98%
11:00 -2°C° 1.6 mm 6 mps 733 mmHg 98%
12:00 -1°C° 1.6 mm 5 mps 733 mmHg 99%
13:00 -1°C° 1.6 mm 5 mps 733 mmHg 99%
14:00 -1°C° 1.5 mm 5 mps 733 mmHg 99%
15:00 -1°C° 1.5 mm 5 mps 733 mmHg 99%
16:00 -2°C° 1.5 mm 6 mps 733 mmHg 99%
17:00 -1°C° 0.5 mm 5 mps 734 mmHg 98%
18:00 -1°C° 0.5 mm 5 mps 734 mmHg 98%
19:00 -1°C° 0.5 mm 5 mps 734 mmHg 98%
20:00 -1°C° 0.4 mm 5 mps 734 mmHg 98%
21:00 -1°C° 0.4 mm 5 mps 734 mmHg 98%
22:00 -1°C° 0.4 mm 5 mps 734 mmHg 98%
23:00 -1°C° 0.3 mm 5 mps 734 mmHg 98%

Tomorrow, 17 April, Saturday

Time Temperature Precipitation Wind Pressure Humidity
00:00 -1°C° 0.3 mm 4 mps 734 mmHg 99%
01:00 -1°C° 0.3 mm 4 mps 734 mmHg 99%
02:00 -1°C° 0 mm 4 mps 734 mmHg 99%
03:00 -1°C° 0 mm 4 mps 735 mmHg 99%
04:00 0°C° 0 mm 3 mps 735 mmHg 99%
05:00 0°C° 0 mm 3 mps 735 mmHg 99%
06:00 +1°C° 0 mm 3 mps 735 mmHg 99%
07:00 +2°C° 0 mm 2 mps 735 mmHg 99%
08:00 +2°C° 0 mm 2 mps 735 mmHg 99%
09:00 +3°C° 0 mm 2 mps 735 mmHg 99%
10:00 +3°C° 0 mm 2 mps 736 mmHg 99%
11:00 +4°C° 0 mm 2 mps 736 mmHg 97%
12:00 +5°C° 0 mm 1 mps 736 mmHg 95%
13:00 +6°C° 0 mm 1 mps 736 mmHg 93%
14:00 +6°C° 0 mm 1 mps 735 mmHg 94%
15:00 +6°C° 0 mm 1 mps 735 mmHg 94%
16:00 +6°C° 0 mm 1 mps 735 mmHg 94%
17:00 +6°C° 0 mm 1 mps 736 mmHg 95%
18:00 +5°C° 0 mm 1 mps 736 mmHg 96%
19:00 +4°C° 0 mm 1 mps 736 mmHg 97%
20:00 +4°C° 0 mm 1 mps 736 mmHg 98%
21:00 +4°C° 0 mm 1 mps 736 mmHg 98%
22:00 +4°C° 0 mm 1 mps 736 mmHg 98%
23:00 +4°C° 0 mm 1 mps 736 mmHg 98%

Day after tomorrow, 18 April, Sunday

Time Temperature Precipitation Wind Pressure Humidity
00:00 +4°C° 0 mm 1 mps 736 mmHg 98%
01:00 +4°C° 0 mm 1 mps 735 mmHg 98%
02:00 +3°C° 0 mm 1 mps 735 mmHg 98%
03:00 +3°C° 0 mm 1 mps 735 mmHg 98%
04:00 +3°C° 0 mm 1 mps 735 mmHg 98%
05:00 +4°C° 0 mm 1 mps 735 mmHg 96%
06:00 +3°C° 0 mm 2 mps 735 mmHg 94%
07:00 +4°C° 0 mm 2 mps 735 mmHg 93%
08:00 +4°C° 0 mm 3 mps 735 mmHg 90%
09:00 +5°C° 0 mm 3 mps 735 mmHg 86%
10:00 +6°C° 0 mm 4 mps 735 mmHg 83%
11:00 +6°C° 0 mm 4 mps 735 mmHg 83%
12:00 +7°C° 0 mm 4 mps 735 mmHg 82%
13:00 +7°C° 0 mm 4 mps 734 mmHg 82%
14:00 +8°C° 0 mm 3 mps 734 mmHg 83%
15:00 +8°C° 0 mm 3 mps 734 mmHg 84%
16:00 +8°C° 0 mm 3 mps 734 mmHg 85%
17:00 +8°C° 0 mm 2 mps 734 mmHg 87%
18:00 +7°C° 0 mm 2 mps 734 mmHg 90%
19:00 +6°C° 0 mm 2 mps 734 mmHg 93%
20:00 +7°C° 0 mm 1 mps 734 mmHg 93%
21:00 +6°C° 0 mm 1 mps 734 mmHg 93%
22:00 +6°C° 0 mm 1 mps 734 mmHg 93%
23:00 +5°C° 0 mm 1 mps 734 mmHg 93%

19 April, Monday

Time Temperature Precipitation Wind Pressure Humidity
00:00 +5°C° 0 mm 1 mps 733 mmHg 92%
01:00 +5°C° 0 mm 1 mps 733 mmHg 92%
02:00 +5°C° 0 mm 1 mps 733 mmHg 93%
03:00 +5°C° 0 mm 1 mps 733 mmHg 93%
04:00 +5°C° 0 mm 1 mps 733 mmHg 94%
05:00 +6°C° 0 mm 1 mps 733 mmHg 93%
06:00 +6°C° 0 mm 2 mps 733 mmHg 92%
07:00 +7°C° 0 mm 2 mps 732 mmHg 92%
08:00 +7°C° 0 mm 3 mps 732 mmHg 90%
09:00 +8°C° 0 mm 3 mps 732 mmHg 89%
10:00 +7°C° 0 mm 4 mps 732 mmHg 88%
11:00 +7°C° 0.1 mm 4 mps 732 mmHg 90%
12:00 +6°C° 0.1 mm 4 mps 732 mmHg 91%
13:00 +6°C° 0.1 mm 4 mps 732 mmHg 93%
14:00 +6°C° 0 mm 4 mps 731 mmHg 90%
15:00 +7°C° 0 mm 3 mps 731 mmHg 88%
16:00 +8°C° 0 mm 3 mps 731 mmHg 86%
17:00 +7°C° 0 mm 2 mps 731 mmHg 87%
18:00 +7°C° 0 mm 2 mps 731 mmHg 87%
19:00 +7°C° 0 mm 1 mps 731 mmHg 88%
20:00 +7°C° 0 mm 1 mps 731 mmHg 90%
21:00 +6°C° 0 mm 1 mps 730 mmHg 92%
22:00 +5°C° 0 mm 1 mps 730 mmHg 94%
23:00 +5°C° 0 mm 1 mps 730 mmHg 95%

20 April, Tuesday

Time Temperature Precipitation Wind Pressure Humidity
00:00 +5°C° 0 mm 1 mps 730 mmHg 95%
01:00 +5°C° 0 mm 1 mps 730 mmHg 96%
02:00 +5°C° 0 mm 1 mps 730 mmHg 96%
03:00 +4°C° 0 mm 2 mps 730 mmHg 97%
04:00 +4°C° 0 mm 2 mps 730 mmHg 97%
05:00 +4°C° 0 mm 2 mps 730 mmHg 93%
06:00 +5°C° 0 mm 2 mps 730 mmHg 90%
07:00 +5°C° 0 mm 2 mps 730 mmHg 86%
08:00 +5°C° 0 mm 3 mps 730 mmHg 82%
09:00 +7°C° 0 mm 3 mps 730 mmHg 78%
10:00 +7°C° 0 mm 3 mps 730 mmHg 73%
11:00 +8°C° 0 mm 3 mps 729 mmHg 70%
12:00 +8°C° 0 mm 4 mps 729 mmHg 66%
13:00 +10°C° 0 mm 4 mps 729 mmHg 62%
14:00 +10°C° 0.1 mm 4 mps 729 mmHg 64%
15:00 +10°C° 0.1 mm 4 mps 729 mmHg 65%
16:00 +10°C° 0.1 mm 3 mps 729 mmHg 66%
17:00 +9°C° 0.1 mm 3 mps 729 mmHg 71%
18:00 +8°C° 0.1 mm 2 mps 729 mmHg 76%
19:00 +6°C° 0.1 mm 2 mps 730 mmHg 81%
20:00 +6°C° 0 mm 2 mps 730 mmHg 82%
21:00 +6°C° 0 mm 2 mps 730 mmHg 84%
22:00 +5°C° 0 mm 2 mps 730 mmHg 86%
23:00 +5°C° 0 mm 2 mps 730 mmHg 88%

21 April, Wednesday

Time Temperature Precipitation Wind Pressure Humidity
00:00 +4°C° 0 mm 2 mps 730 mmHg 91%
01:00 +4°C° 0 mm 2 mps 730 mmHg 93%
02:00 +3°C° 0 mm 2 mps 730 mmHg 93%
03:00 +3°C° 0 mm 2 mps 730 mmHg 93%
04:00 +3°C° 0 mm 2 mps 730 mmHg 93%
05:00 +4°C° 0 mm 2 mps 730 mmHg 88%
06:00 +5°C° 0 mm 3 mps 730 mmHg 84%
07:00 +7°C° 0 mm 3 mps 731 mmHg 79%
08:00 +8°C° 0.1 mm 3 mps 731 mmHg 73%
09:00 +8°C° 0.1 mm 4 mps 731 mmHg 66%
10:00 +10°C° 0.1 mm 4 mps 731 mmHg 60%
11:00 +11°C° 0.1 mm 4 mps 731 mmHg 59%
12:00 +11°C° 0.1 mm 4 mps 731 mmHg 58%
13:00 +12°C° 0.1 mm 4 mps 731 mmHg 57%
14:00 +12°C° 0.1 mm 4 mps 731 mmHg 58%
15:00 +12°C° 0.1 mm 3 mps 731 mmHg 58%
16:00 +12°C° 0.1 mm 3 mps 731 mmHg 58%
17:00 +10°C° 0.1 mm 3 mps 731 mmHg 66%
18:00 +9°C° 0.1 mm 2 mps 731 mmHg 74%
19:00 +7°C° 0.1 mm 2 mps 732 mmHg 81%
20:00 +7°C° 0 mm 2 mps 732 mmHg 84%
21:00 +7°C° 0 mm 2 mps 732 mmHg 86%
22:00 +6°C° 0 mm 2 mps 732 mmHg 89%
23:00 +6°C° 0 mm 2 mps 732 mmHg 90%
Show more